Location: Newark
(48.5178°N, 4.2361°E)
Time: 07:20:34
(UTC+00:00)

Envisat - Visible Passes

Search period start: 06 March 2021 00:00
Search period end: 16 March 2021 00:00
Orbit: 764 x 766 km, 98.1° (Epoch: 05 March)

Date Brightness Start Highest point End Pass type
(mag) Time Alt. Az. Time Alt. Az. Time Alt. Az.
06 Mar 4.7 04:48:36 10° NNE 04:53:17 35° E 04:57:55 10° SSE visible
07 Mar 5.9 04:12:42 10° NE 04:16:06 18° E 04:19:29 10° SE visible
08 Mar 3.7 05:13:46 10° NNE 05:18:48 59° E 05:23:48 10° S visible
08 Mar 6.8 18:15:50 10° W 18:16:58 11° W 18:18:05 10° WNW visible
09 Mar 5.1 04:37:21 10° NE 04:41:46 29° E 04:46:08 10° SSE visible
10 Mar 6.0 04:01:50 10° NE 04:04:31 14° E 04:07:11 10° ESE visible
11 Mar 4.2 05:02:24 10° NNE 05:07:20 47° E 05:12:13 10° S visible
12 Mar 5.5 04:26:11 10° NE 04:30:14 23° E 04:34:15 10° SE visible
13 Mar 6.3 03:51:26 10° ENE 03:52:55 11° E 03:54:25 10° ESE visible
14 Mar 4.6 04:51:05 10° NNE 04:55:51 38° E 05:00:33 10° SSE visible
15 Mar 5.8 04:15:05 10° NE 04:18:40 19° E 04:22:15 10° SE visible
